C/2017 S2 ( PanSTARRS )

Japanese version
Home page
Updated on November 23, 2017

---------------------------------------------------------------------

* Profile

Discovery Date September 16, 2017
Magnitude 20.9 mag
Discoverer Pan-STARRS 1 telescope (Haleakala)

* Pictures

* Orbital Elements

Epoch 2017 Sept. 4.0 TT = JDT 2458000.5
T 2017 Aug. 29.46243 TT                                 MPCW
q   3.6146031            (2000.0)            P               Q
n   0.01067930     Peri.  305.99868     +0.97170881     -0.13379684
a  20.4224388      Node    62.42610     +0.21346601     +0.85015487
e   0.8230083      Incl.   12.68370     -0.10106559     +0.50924954
P  92.29
From 48 observations 2017 Aug. 22-Oct. 21, mean residual 0".3.

* Magnitudes Graph

        m1 = 12.5 + 5 log d + 10.0 log r

---------------------------------------------------------------------

The orbital elements are published on M.P.E.C. 2017-V13.
The magnitudes graphs are made with Comet for Windows.

---------------------------------------------------------------------

Copyright(C) Seiichi Yoshida (comet@aerith.net). All rights reserved.